Content
SEND FEEDBACK

Daily
Averages
Monthly
Summary
New Zealand

TAUPO, NEW ZEALAND


Home > Oceania > New Zealand
Elevation: 1550 feet     Latitude: 38 39S     Longitude: 176 08E

WEATHER
 
SELECT A DAY
Number of Records: 148,274;   Date Range: 7/1/96 - 10/7/14
 
SHARE

PRINT THIS DATA

[ ← Previous Day ]
WEATHER ALMANAC - SEPTEMBER 18, 2013
[ Next Day → ]
[ °C ]   °F
Weather ElementAverageHighLow
Temperature49.3 °F57.2 °F (12:30 pm)37.4 °F (5:00 am)
Dewpoint38.6 °F44.6 °F (7:30 pm)32 °F (3:00 am)
Humidity68.1 %93 % (4:30 am)48 % (1:00 pm)
Barometer30.25 in30.30 in (8:30 am)30.15 in (12:30 am)
Wind Speed6.3 mph12.7 mph (3:30 pm)
Weather ElementAverage
Visibility6.2 mi
Wind DirectionE (89.4 °)

Weather ElementTotal
Precipitation---
Heating Degree Days17.7 (Base 65)
Averaged from 47 records on September 18, 2013
WEATHER CONDITIONS BREAKOUT
WIND DIRECTION BREAKOUT
WEATHER BY HOUR - SEPTEMBER 18, 2013
[ °C ]   °F
Local TimeTemperatureDewpointHumidityBarometerVisibilityWind DirectionWind SpeedGust SpeedPrecipitationEventsConditions
12:30 AM46.4 °F35.6 °F66 %30.15 in6.2 miEast (100°)3.5 mph
1:00 AM46.4 °F35.6 °F66 %30.15 in6.2 miESE (110°)4.6 mph
1:30 AM46.4 °F33.8 °F62 %30.18 in6.2 miESE (120°)4.6 mph
2:00 AM46.4 °F33.8 °F62 %30.18 in6.2 miESE (120°)6.9 mph
2:30 AM44.6 °F33.8 °F66 %30.18 in6.2 miESE (120°)2.3 mph
3:00 AM44.6 °F32.0 °F61 %30.18 in6.2 miESE (120°)1.2 mph
3:30 AM42.8 °F32.0 °F66 %30.18 in6.2 miNorth (10°)2.3 mph
4:00 AM41.0 °F35.6 °F81 %30.18 in6.2 miNNE (30°)1.2 mph
4:30 AM39.2 °F37.4 °F93 %30.21 in6.2 miESE (110°)1.2 mph
5:00 AM37.4 °F33.8 °F87 %30.21 in6.2 miNorth (360°)3.5 mph
5:30 AM39.2 °F32.0 °F75 %30.24 in6.2 miNW (320°)2.3 mph
6:00 AM39.2 °F35.6 °F87 %30.24 in6.2 miNorth (10°)1.2 mph
6:30 AM39.2 °F33.8 °F81 %30.24 in6.2 miEast (90°)2.3 mph
7:00 AM42.8 °F35.6 °F76 %30.24 in6.2 miSE (130°)8.1 mph
7:30 AM42.8 °F37.4 °F81 %30.27 in6.2 miESE (120°)6.9 mph
8:00 AM44.6 °F35.6 °F71 %30.27 in6.2 miSE (130°)6.9 mph
8:30 AM46.4 °F35.6 °F66 %30.30 in6.2 miESE (120°)8.1 mph
9:00 AM48.2 °F35.6 °F62 %30.30 in6.2 miESE (120°)5.8 mph
9:30 AM50.0 °F35.6 °F58 %30.30 in6.2 miSE (130°)4.6 mph
10:00 AM51.8 °F37.4 °F58 %30.30 in6.2 miSSE (150°)3.5 mph
10:30 AM53.6 °F37.4 °F54 %30.30 in6.2 miNE (40°)5.8 mph
11:00 AM55.4 °F37.4 °F51 %30.27 in6.2 miNNE (20°)6.9 mph
11:30 AM55.4 °F37.4 °F51 %30.27 in6.2 miNE (40°)8.1 mph
12:00 PM55.4 °F37.4 °F51 %30.27 in6.2 miNE (50°)9.2 mph
12:30 PM57.2 °F39.2 °F51 %30.27 in6.2 miNNE (20°)9.2 mph
1:00 PM57.2 °F37.4 °F48 %30.24 in6.2 miNNE (20°)10.4 mph
1:30 PM57.2 °F39.2 °F51 %30.24 in6.2 miNNE (20°)10.4 mph
2:00 PM57.2 °F39.2 °F51 %30.24 in6.2 miNE (40°)9.2 mph
2:30 PM57.2 °F37.4 °F48 %30.24 in6.2 miNNE (20°)11.5 mph
3:00 PM57.2 °F39.2 °F51 %30.24 inNNE (30°)11.5 mphClear
3:30 PM57.2 °F37.4 °F48 %30.24 in6.2 miNorth (360°)12.7 mphScattered Clouds
4:00 PM57.2 °F41.0 °F55 %30.27 in6.2 miNorth (360°)9.2 mph
4:30 PM55.4 °F41.0 °F58 %30.27 in6.2 miNNE (20°)8.1 mph
5:00 PM55.4 °F42.8 °F63 %30.27 in6.2 miNNE (20°)6.9 mph
5:30 PM53.6 °F42.8 °F67 %30.27 in6.2 miNE (40°)9.2 mph
6:00 PM51.8 °F42.8 °F71 %30.27 in6.2 miNNE (30°)8.1 mph
6:30 PM51.8 °F42.8 °F71 %30.27 in6.2 miNNE (30°)6.9 mph
7:00 PM51.8 °F42.8 °F71 %30.27 in6.2 miNE (40°)5.8 mph
7:30 PM50.0 °F44.6 °F82 %30.30 in6.2 miNE (40°)5.8 mph
8:00 PM50.0 °F44.6 °F82 %30.30 in6.2 miNE (40°)5.8 mphPartly Cloudy
8:30 PM50.0 °F44.6 °F82 %30.30 in6.2 miNE (40°)5.8 mphScattered Clouds
9:00 PM50.0 °F44.6 °F82 %30.30 in6.2 miNE (40°)4.6 mph
9:30 PM48.2 °F44.6 °F87 %30.30 in6.2 miENE (70°)4.6 mph
10:00 PM48.2 °F44.6 °F87 %30.30 in6.2 miENE (70°)6.9 mph
10:30 PM48.2 °F44.6 °F87 %30.30 in6.2 miENE (60°)5.8 mph
11:00 PM48.2 °F44.6 °F87 %30.30 in6.2 miENE (60°)8.1 mph
11:30 PM48.2 °F44.6 °F87 %30.30 in6.2 miENE (60°)9.2 mph
Hourly data recorded from NZWT, located miles away from Taupo, New Zealand







STORIES FROM OUR PARTNERS